Weather History for Buffalo, SD

Change the Weather History Date:

Sunday, September 15, 2013

  Actual Average Record
Temperature  
Mean Temperature 59 °F 59 °F  
Max Temperature 67 °F 73 °F 95 °F (2002)
Min Temperature 50 °F 44 °F 34 °F (1999)
Degree Days  
Heating Degree Days 6 7  
Month to date heating degree days 8 77  
Since 1 July heating degree days 20 129  
Cooling Degree Days 0 1  
Month to date cooling degree days 90 35  
Year to date cooling degree days 577 506  
Growing Degree Days 8 (Base 50)    
Moisture  
Dew Point 48 °F    
Average Humidity 72    
Maximum Humidity 96    
Minimum Humidity 48    
Precipitation  
Precipitation 0.00 in 0.05 in 1.22 in (2010)
Month to date precipitation 1.84 0.64  
Year to date precipitation 11.32 12.78  
Sea Level Pressure  
Sea Level Pressure 30.17 in    
Wind  
Wind Speed 11 mph (East)    
Max Wind Speed 16 mph    
Max Gust Speed 20 mph    
T = Trace of Precipitation, MM = Missing Value Source: NWS Daily Summary

Daily Weather History Graph

Daily Weather History Graph

Search for Another Location

Airport:

Trip Planner

Search our weather history database for the weather conditions in past years. The results will help you decide how hot, cold, wet, or windy it might be!

Date:

Astronomy

Sep. 15, 2013 Rise Set
Actual Time 6:32 AM MDT 7:04 PM MDT
Civil Twilight 6:03 AM MDT 7:34 PM MDT
Nautical Twilight 5:27 AM MDT 8:09 PM MDT
Astronomical Twilight 4:51 AM MDT 8:46 PM MDT
Moon 4:42 PM MDT (9/15) 2:03 AM MDT (9/15)
Length of Visible Light 13h 31m
Length of Day
12h 31m
Waxing Gibbous, 82% of the Moon is Illuminated
Sep 15
Waxing Gibbous
Sep 19
Full
Sep 26
Last Quarter
Oct 4
New
Oct 11
First Quarter

Hourly Weather History & Observations

Time (MDT) Temp. Dew Point Humidity Pressure Visibility Wind Dir Wind Speed Gust Speed Precip Events Conditions
12:56 AM 57.9 °F 55.9 °F 93% 30.04 in - NNE 12.7 mph - N/A   Unknown
1:56 AM 57.0 °F 52.0 °F 83% 30.05 in - NE 15.0 mph - N/A   Unknown
2:56 AM 55.9 °F 52.0 °F 87% 30.06 in - ENE 13.8 mph - N/A   Unknown
3:56 AM 52.0 °F 48.0 °F 86% 30.10 in - ENE 8.1 mph - N/A   Unknown
4:56 AM 53.1 °F 50.0 °F 89% 30.13 in - NE 6.9 mph - N/A   Unknown
5:56 AM 51.1 °F 48.9 °F 92% 30.15 in - NE 8.1 mph - N/A   Unknown
6:56 AM 52.0 °F 50.0 °F 93% 30.17 in - NE 8.1 mph - N/A   Unknown
7:56 AM 52.0 °F 50.0 °F 93% 30.18 in - ENE 10.4 mph - N/A   Unknown
8:56 AM 52.0 °F 50.0 °F 93% 30.20 in - ENE 8.1 mph - N/A   Unknown
9:56 AM 52.0 °F 48.9 °F 89% 30.22 in - ENE 9.2 mph - N/A   Unknown
10:56 AM 55.0 °F 48.9 °F 80% 30.23 in - East 5.8 mph - N/A   Unknown
11:56 AM 57.9 °F 50.0 °F 75% 30.23 in - East 10.4 mph - N/A   Unknown
12:56 PM 60.1 °F 48.9 °F 67% 30.23 in - East 9.2 mph 17.3 mph N/A   Unknown
1:56 PM 63.0 °F 48.0 °F 58% 30.21 in - East 10.4 mph 18.4 mph N/A   Unknown
2:56 PM 66.0 °F 46.0 °F 48% 30.19 in - ESE 8.1 mph - N/A   Unknown
3:56 PM 66.0 °F 46.0 °F 48% 30.18 in - ESE 11.5 mph 18.4 mph N/A   Unknown
4:56 PM 66.0 °F 46.0 °F 48% 30.17 in - ESE 12.7 mph - N/A   Unknown
5:56 PM 64.9 °F 45.0 °F 48% 30.17 in - ESE 12.7 mph - N/A   Unknown
6:56 PM 60.1 °F 45.0 °F 57% 30.17 in - ESE 11.5 mph - N/A   Unknown
7:56 PM 55.9 °F 46.0 °F 69% 30.19 in - East 10.4 mph - N/A   Unknown
8:56 PM 54.0 °F 46.9 °F 77% 30.19 in - East 12.7 mph - N/A   Unknown
9:56 PM 53.1 °F 46.0 °F 77% 30.19 in - ESE 12.7 mph - N/A   Unknown
10:56 PM 53.1 °F 46.0 °F 77% 30.18 in - SE 12.7 mph - N/A   Unknown
11:56 PM 52.0 °F 46.0 °F 80% 30.17 in - SE 11.5 mph - N/A   Unknown